Strona główna
METAR-TAF:

METAR-TAF

Lotnisko :

Delaware, Ohio, Stany Zjednoczone

Szerokość geograficzna: 40-16-47N, Długość geograficzna: 83-06-53W, wysokość: 288 m

Aktualna obserwacja pogody

Raport powstał 12 minut temu, godzina 12:55 UTC
Wiatr 5 kt od południowo-południowy zachód
Temperatura 16°C
Wilgotność 94%
Ciśnienie 1021 hPa
Widzialność: 16.1 km
Przerywane chmury na wysokości 11000 ft

METAR: KDLZ 211255Z AUTO 21005KT 10SM BKN110 16/15 A3014 RMK AO2

czas: 09:07 (13:07 UTC)


TAF: brakujący

Obserwacja i prognoza pogody dla ponad 4000 lotnisk (raport METAR i TAF).

Dostępne stacje oznaczono żółtymi i czerwonymi punktami na mapie.

Najedź kursorem aby zobaczyć nazwę stacji.

Kliknij aby zobaczyć obserwacje i prognozy pogody.

Aby zmienić mapę: kliknij na zielony przycisk z czarnym krzyżykiem, aby powiększyć; na zielony przycisk z myślnikiem, aby pomniejszyć; na zielone strzałki, aby przejść do map sąsiednich.


METAR-TAF: